[[{"header":{"parameterUnit":"m.s-1","parameterCategory":1,"la1":30.2991,"la2":30.254,"lo1":-89.0895,"lo2":-89.0444,"dy":0.0017,"dx":0.0017,"nx":28,"ny":28,"refTime":"2025-12-16T03:00:00:Z","depth":0,"parameterNumber":2,"parameterNumberName":"U-component_of_WINDS"},"data":[0,0,0,0,0,0,0,0,0,0,0,0,0,0,0,0,0,0,0,0,0,0,0,0,0,0,0,0,0,0,0,0,0,0,0,0,0,0,0,0,0,0,0,0,0,0,0,0,0,0,0,0,0,0,0,0,0,0,-1.9752,-1.9753,0,-1.9814,-1.9815,-1.9816,-1.9743,-1.974,-1.9738,-1.9735,-1.9802,-1.9806,-1.981,0,0,0,0,0,0,0,0,0,0,0,0,0,-1.9571,-1.9575,-1.9752,-1.9753,-1.9753,-1.9814,-1.9815,-1.9816,-1.9744,-1.974,-1.9737,-1.9734,-1.98,-1.9805,-1.981,0,0,0,0,0,0,0,0,0,0,0,0,0,-1.9644,-1.9576,-1.9752,-1.9725,-1.9723,-1.9814,-1.9815,-1.9816,-1.9744,-1.974,-1.9736,-1.9732,-1.9798,-1.9805,-1.9811,-1.9933,0,0,-1.9831,-1.9834,0,0,0,0,0,0,0,0,-1.9639,-1.965,-1.9728,-1.9727,-1.9725,-1.9767,-1.9776,-1.9855,-1.9745,-1.9736,-1.9735,-1.973,-1.9793,-1.98,-1.9821,-1.9936,-1.9939,-1.9831,-1.9835,-1.9838,-1.984,0,0,0,0,0,0,0,-1.9635,-1.9647,-1.9777,-1.9729,-1.9727,-1.971,-1.9716,-1.9791,-1.9787,-1.9737,-1.9732,-1.974,-1.9792,-1.9815,-1.9822,-1.994,-1.9831,-1.9837,-1.9841,-1.9844,-2.0158,-2.0162,0,0,0,0,0,0,-1.9632,-1.9643,-1.9775,-1.9778,-1.9671,-1.9716,-1.9723,-1.9757,-1.9786,-1.9786,-1.9743,-1.9736,-1.9806,-1.9814,-1.9824,-1.9968,-1.9838,-1.9844,-1.9848,-2.0153,-2.0159,-2.0164,0,0,0,0,0,0,-1.9629,-1.9645,-1.9772,-1.971,-1.9724,-1.9724,-1.9763,-1.9761,-1.9784,-1.9791,-1.979,-1.9767,-1.9803,-1.9815,-1.9906,-1.997,-1.9847,-1.9853,-2.0148,-2.0155,-2.0161,-2.0258,0,0,0,0,0,0,-1.9624,-1.9644,-1.969,-1.9711,-1.9728,-1.9853,-1.9767,-1.9765,-1.9795,-1.9786,-1.9813,-1.9814,-1.9801,-1.9897,-1.9913,-1.9976,-1.9858,-2.0142,-2.0151,-2.0159,-2.025,-2.0268,-2.0283,0,0,0,0,0,-1.9618,-1.9715,-1.9693,-1.9709,-1.9785,-1.9857,-1.9867,-1.9849,-1.98,-1.9847,-1.9851,-1.9813,-1.996,-1.9907,-1.9924,-1.9991,-2.0138,-2.0149,-2.0158,-2.0242,-2.0264,-2.0283,0,0,0,0,0,0,-1.9703,-1.9718,-1.9693,-1.98,-1.9828,-1.9844,-1.9903,-1.9873,-1.9915,-1.9906,-1.9882,-1.9889,-1.9986,-1.9997,-1.9938,-2.011,-2.0041,-2.0055,-2.0099,-2.012,-2.0136,-2.0132,-1.9863,0,0,0,0,0,-1.9734,-1.979,-1.98,-1.9894,-1.9909,-1.9904,-1.9934,-1.9918,-1.9946,-1.9957,-1.9968,-1.9998,-2.005,-2.0086,-2.0134,-2.025,-2.0255,-2.0305,-2.0321,-2.0335,-2.0348,-2.041,-2.0432,-2.0197,-2.0197,-2.0196,0,0,-1.9799,-1.9814,-1.9851,-1.9911,-1.9931,-1.999,-1.9914,-1.998,-2.0024,-1.9967,-2.0054,-2.0064,-2.0095,-2.0199,-2.0245,-2.0211,-2.0414,-2.0348,-2.0359,-2.0364,-2.0422,-2.0445,-2.0465,-2.0203,-2.0202,-2.0201,0,0,-1.9948,-1.9965,-2.0044,-2.0065,-2.0095,-2.0091,-2.011,-2.0132,-2.0135,-2.0222,-2.0181,-2.0233,-2.0324,-2.0348,-2.0372,-2.0529,-2.0495,-2.0545,-2.0633,-2.0694,-2.0713,-2.0729,-2.0785,-2.0806,-2.0558,-2.0558,-2.0558,0,-2.0025,-2.0112,-2.0089,-2.0158,-2.0186,-2.0137,-2.0218,-2.0239,-2.0284,-2.0305,-2.0266,-2.0379,-2.0396,-2.0505,-2.0543,-2.0564,-2.0586,-2.0542,-2.0711,-2.0728,-2.0743,-2.0796,-2.0817,-2.0564,-2.0563,-2.0563,-2.0562,0,-2.0206,-2.0267,-2.0328,-2.0371,-2.0406,-2.048,-2.047,-2.0507,-2.0488,-2.0488,-2.0576,-2.0595,-2.0647,-2.0672,-2.0654,-2.0778,-2.0756,-2.0715,-2.0646,-2.0771,-2.0821,-2.0841,-2.0572,-2.057,-2.0568,-2.0567,0,0,-2.0411,-2.044,-2.0463,-2.0482,-2.0511,-2.0558,-2.0631,-2.068,-2.0713,-2.0746,-2.0806,-2.0884,-2.0846,-2.0873,-2.0857,-2.0911,-2.1034,-2.0862,-2.0863,-2.0894,-2.1172,-2.1204,-2.1228,-2.1011,-2.1015,-2.1018,-2.117,0,-2.056,-2.0685,-2.0666,-2.0787,-2.0843,-2.0796,-2.0859,-2.0884,-2.0886,-2.0934,-2.0936,-2.0992,-2.0937,-2.0953,-2.1004,-2.1008,-2.109,-2.0997,-2.1068,-2.1071,-2.1062,-2.1254,-2.1287,-2.1429,-2.1189,-2.1192,-2.1195,0,-2.0751,-2.079,-2.0916,-2.0935,-2.0958,-2.1015,-2.1059,-2.1106,-2.1133,-2.113,-2.1161,-2.1135,-2.1208,-2.1137,-2.1237,-2.1174,-2.1202,-2.1209,-2.1214,-2.122,-2.1141,-2.1266,-2.1474,-2.1496,-2.1225,-2.1223,-2.1221,0,-2.0889,-2.0972,-2.1058,-2.1076,-2.1101,-2.1142,-2.1155,-2.1178,-2.1209,-2.1247,-2.1267,-2.1314,-2.134,-2.1377,-2.1364,-2.1314,-2.1467,-2.1395,-2.1468,-2.1468,-2.1503,-2.1501,-2.1719,-2.152,-2.152,-2.1519,-2.1519,0,-2.1058,-2.1137,-2.112,-2.1173,-2.126,-2.1238,-2.1325,-2.1331,-2.1352,-2.1406,-2.1369,-2.142,-2.1401,-2.1451,-2.1442,-2.1526,-2.1538,-2.1538,-2.1535,-2.1542,-2.1542,-2.1561,-2.1551,-2.1525,-2.1524,-2.1523,-2.1522,0,-2.1226,-2.1218,-2.1309,-2.1325,-2.1331,-2.1394,-2.1408,-2.1458,-2.1456,-2.1525,-2.154,-2.1538,-2.1595,-2.1586,-2.165,-2.1643,-2.1749,-2.1733,-2.1739,-2.1736,-2.1809,-2.1802,-2.2047,-2.2078,-2.1859,-2.1861,-2.1863,0,-2.1335,-2.1394,-2.1417,-2.145,-2.1465,-2.1519,-2.1549,-2.153,-2.1564,-2.1599,-2.1645,-2.1699,-2.1741,-2.1834,-2.1839,-2.1887,-2.1873,-2.1955,-2.188,-2.1885,-2.1875,-2.1872,-2.1877,-2.1971,-2.1973,-2.1975,-2.1977,0,-2.1529,-2.1522,-2.1567,-2.1612,-2.165,-2.1684,-2.1715,-2.1744,-2.1727,-2.1768,-2.1825,-2.1858,-2.1922,-2.1976,-2.2021,-2.2035,-2.2004,-2.2,-2.202,-2.2028,-2.2029,-2.2029,-2.178,-2.1995,-2.1993,-2.1992,-2.1991,-2.199,-2.1671,-2.1722,-2.1745,-2.1797,-2.1818,-2.1847,-2.1895,-2.1899,-2.1946,-2.1996,-2.1982,-2.2048,-2.2073,-2.213,-2.2149,-2.22,-2.217,-2.2198,-2.2205,-2.2212,-2.2221,-2.202,-2.2208,-2.2208,-2.2207,-2.2207,-2.2206,0,-2.1863,-2.1876,-2.1924,-2.1968,-2.2009,-2.1974,-2.2006,-2.2043,-2.2101,-2.2127,-2.2169,-2.2235,-2.2287,-2.2295,-2.2344,-2.2384,-2.2371,-2.2397,-2.2395,-2.2398,-2.2245,-2.2224,-2.2407,-2.2407,-2.2407,-2.2407,-2.2407,-2.2407,-2.1968,-2.2052,-2.2047,-2.2141,-2.2153,-2.2216,-2.2237,-2.2264,-2.2285,-2.236,-2.2403,-2.2407,-2.2426,-2.2476,-2.2522,-2.2523,-2.2544,-2.2576,-2.2572,-2.2429,-2.2409,-2.239,-2.237,-2.2581,-2.2581,-2.272,-2.2722,-2.2723]},{"header":{"parameterUnit":"m.s-1","parameterCategory":1,"la1":30.2991,"la2":30.254,"lo1":-89.0895,"lo2":-89.0444,"dy":0.0017,"dx":0.0017,"nx":28,"ny":28,"refTime":"2025-12-16T03:00:00:Z","depth":0,"parameterNumber":3,"parameterNumberName":"V-component_of_WINDS"},"data":[0,0,0,0,0,0,0,0,0,0,0,0,0,0,0,0,0,0,0,0,0,0,0,0,0,0,0,0,0,0,0,0,0,0,0,0,0,0,0,0,0,0,0,0,0,0,0,0,0,0,0,0,0,0,0,0,0,0,-2.2221,-2.2222,0,-2.2287,-2.2288,-2.2288,-2.23,-2.2299,-2.2299,-2.2298,-2.2364,-2.2366,-2.2369,0,0,0,0,0,0,0,0,0,0,0,0,0,-2.2103,-2.2105,-2.2221,-2.2222,-2.2223,-2.2287,-2.2288,-2.2289,-2.23,-2.2299,-2.2299,-2.2298,-2.2364,-2.2366,-2.2369,0,0,0,0,0,0,0,0,0,0,0,0,0,-2.216,-2.2106,-2.2221,-2.2236,-2.2238,-2.2287,-2.2288,-2.2289,-2.23,-2.2299,-2.2298,-2.2298,-2.2363,-2.2366,-2.2369,-2.2407,0,0,-2.238,-2.2381,0,0,0,0,0,0,0,0,-2.2157,-2.2165,-2.2233,-2.2235,-2.2238,-2.2284,-2.227,-2.2328,-2.23,-2.2276,-2.2298,-2.2297,-2.2338,-2.2344,-2.2358,-2.241,-2.2413,-2.238,-2.2382,-2.2384,-2.2385,0,0,0,0,0,0,0,-2.2153,-2.2162,-2.2247,-2.2234,-2.2237,-2.2239,-2.2246,-2.2281,-2.2311,-2.2278,-2.2279,-2.2287,-2.2339,-2.2354,-2.2359,-2.2414,-2.238,-2.2383,-2.2385,-2.2386,-2.2498,-2.2499,0,0,0,0,0,0,-2.2147,-2.2158,-2.2245,-2.2249,-2.2194,-2.2242,-2.225,-2.227,-2.2311,-2.2316,-2.2288,-2.2287,-2.2349,-2.2355,-2.2362,-2.2407,-2.2384,-2.2387,-2.2389,-2.2497,-2.2498,-2.2499,0,0,0,0,0,0,-2.2144,-2.2154,-2.2242,-2.2204,-2.2215,-2.2245,-2.2267,-2.2272,-2.2287,-2.2318,-2.2323,-2.2298,-2.2349,-2.2357,-2.2395,-2.2409,-2.2388,-2.2391,-2.2496,-2.2497,-2.2499,-2.2499,0,0,0,0,0,0,-2.2141,-2.2153,-2.2168,-2.2204,-2.2217,-2.2275,-2.2268,-2.2274,-2.2293,-2.2293,-2.2329,-2.2334,-2.2349,-2.239,-2.2399,-2.2414,-2.2394,-2.2495,-2.2497,-2.2498,-2.2497,-2.25,-2.2502,0,0,0,0,0,-2.2136,-2.2166,-2.2169,-2.218,-2.2237,-2.2276,-2.2284,-2.23,-2.2294,-2.2309,-2.2329,-2.2333,-2.2407,-2.2394,-2.2404,-2.242,-2.2494,-2.2496,-2.2498,-2.2496,-2.2499,-2.2502,0,0,0,0,0,0,-2.2131,-2.2171,-2.2175,-2.2217,-2.2243,-2.2278,-2.2298,-2.2303,-2.2331,-2.233,-2.2349,-2.2357,-2.2394,-2.2411,-2.2396,-2.2457,-2.245,-2.2454,-2.2445,-2.2448,-2.245,-2.2445,-2.2397,0,0,0,0,0,-2.2135,-2.2164,-2.2197,-2.2231,-2.2244,-2.2268,-2.2286,-2.2296,-2.2324,-2.2335,-2.2358,-2.2384,-2.2413,-2.2432,-2.246,-2.25,-2.2507,-2.2516,-2.2518,-2.252,-2.2523,-2.2544,-2.2547,-2.2506,-2.2506,-2.2506,0,0,-2.2142,-2.2168,-2.2185,-2.223,-2.2252,-2.228,-2.2277,-2.2308,-2.2329,-2.234,-2.2377,-2.2394,-2.2425,-2.2463,-2.2482,-2.2479,-2.2536,-2.2522,-2.2524,-2.2526,-2.2546,-2.255,-2.2553,-2.2507,-2.2507,-2.2507,0,0,-2.2171,-2.2194,-2.2224,-2.2245,-2.2278,-2.2294,-2.2301,-2.2335,-2.2347,-2.2384,-2.2392,-2.2417,-2.2467,-2.2488,-2.2505,-2.2541,-2.2545,-2.2549,-2.256,-2.258,-2.2584,-2.2587,-2.2598,-2.2602,-2.2552,-2.2552,-2.2552,0,-2.2177,-2.2221,-2.2239,-2.2269,-2.2288,-2.2298,-2.2328,-2.2348,-2.2388,-2.24,-2.2396,-2.2458,-2.248,-2.2523,-2.2531,-2.2545,-2.2553,-2.2545,-2.2582,-2.2585,-2.2588,-2.2599,-2.2603,-2.2553,-2.2553,-2.2553,-2.2553,0,-2.2225,-2.2256,-2.2276,-2.2314,-2.2335,-2.2365,-2.2386,-2.2406,-2.2414,-2.243,-2.2467,-2.2493,-2.2527,-2.2538,-2.2547,-2.2582,-2.2579,-2.2578,-2.2571,-2.2592,-2.2602,-2.2607,-2.2553,-2.2553,-2.2553,-2.2553,0,0,-2.2253,-2.2299,-2.2306,-2.2323,-2.2359,-2.2382,-2.2412,-2.2445,-2.246,-2.2487,-2.2512,-2.2553,-2.2552,-2.2572,-2.2583,-2.2601,-2.2625,-2.2598,-2.2599,-2.2601,-2.2663,-2.2663,-2.2667,-2.2628,-2.2629,-2.263,-2.266,0,-2.2285,-2.2338,-2.2354,-2.2399,-2.2426,-2.2436,-2.2462,-2.2486,-2.2502,-2.2527,-2.2544,-2.2572,-2.257,-2.2582,-2.26,-2.2618,-2.2638,-2.2616,-2.265,-2.2651,-2.2641,-2.2673,-2.2673,-2.2701,-2.2665,-2.2666,-2.2666,0,-2.2329,-2.2356,-2.2404,-2.2435,-2.2447,-2.247,-2.25,-2.2524,-2.2551,-2.2561,-2.2582,-2.2592,-2.2622,-2.2613,-2.2654,-2.2639,-2.2654,-2.2665,-2.2667,-2.267,-2.2659,-2.2676,-2.271,-2.2714,-2.2673,-2.2672,-2.2672,0,-2.2343,-2.2391,-2.2425,-2.244,-2.2477,-2.2493,-2.2509,-2.2535,-2.2553,-2.258,-2.2591,-2.2621,-2.2637,-2.2659,-2.2676,-2.2668,-2.2715,-2.2708,-2.2723,-2.2722,-2.2732,-2.2731,-2.2768,-2.2743,-2.2743,-2.2743,-2.2743,0,-2.2376,-2.2404,-2.2432,-2.2453,-2.2484,-2.2502,-2.2532,-2.2549,-2.2572,-2.2596,-2.2606,-2.2628,-2.2649,-2.2674,-2.2687,-2.2718,-2.2725,-2.2733,-2.2736,-2.2732,-2.2731,-2.2741,-2.2739,-2.2744,-2.2744,-2.2744,-2.2743,0,-2.2396,-2.2416,-2.2453,-2.2486,-2.2494,-2.2516,-2.2543,-2.2563,-2.2579,-2.2608,-2.2616,-2.2641,-2.267,-2.2689,-2.2726,-2.2735,-2.2768,-2.2771,-2.2759,-2.276,-2.2774,-2.2772,-2.2818,-2.2824,-2.2796,-2.2796,-2.2797,0,-2.2416,-2.2437,-2.2472,-2.2488,-2.2504,-2.2531,-2.2549,-2.2568,-2.2586,-2.2618,-2.2634,-2.2664,-2.2688,-2.2734,-2.2755,-2.2783,-2.2786,-2.28,-2.279,-2.2784,-2.2784,-2.2782,-2.2784,-2.2801,-2.2801,-2.2801,-2.2802,0,-2.2448,-2.2456,-2.2482,-2.2511,-2.2533,-2.2557,-2.258,-2.2593,-2.2615,-2.2635,-2.2665,-2.2684,-2.2722,-2.275,-2.278,-2.2796,-2.2802,-2.2805,-2.2809,-2.2805,-2.2796,-2.2799,-2.2762,-2.2803,-2.2803,-2.2803,-2.2803,-2.2803,-2.2467,-2.2486,-2.2513,-2.2541,-2.2561,-2.2583,-2.2603,-2.2621,-2.2646,-2.2678,-2.2687,-2.2718,-2.2743,-2.2784,-2.28,-2.2824,-2.2822,-2.2829,-2.2831,-2.2832,-2.2831,-2.2793,-2.2829,-2.2829,-2.2829,-2.2829,-2.2829,0,-2.2499,-2.2516,-2.2542,-2.2575,-2.2597,-2.2601,-2.2627,-2.2645,-2.2672,-2.2695,-2.2719,-2.2752,-2.278,-2.2802,-2.2831,-2.2845,-2.2849,-2.2852,-2.285,-2.2854,-2.2832,-2.2824,-2.2849,-2.2849,-2.2849,-2.2849,-2.2849,-2.2849,-2.2518,-2.255,-2.2561,-2.2603,-2.262,-2.265,-2.2664,-2.2684,-2.2703,-2.2739,-2.2762,-2.2777,-2.28,-2.283,-2.2855,-2.2861,-2.287,-2.2873,-2.2879,-2.2858,-2.2856,-2.2853,-2.2846,-2.2875,-2.2875,-2.2898,-2.2899,-2.2899]}]]